TKJ9OK LTAZ-LTFJ

Flight info

Callsign TKJ9OK
Flight time 0h 52m
Altitude 36000
Route AZBUL UT329 TOKER
Aircraft A321/M-SDE3FGHIRWY/LB1

Departure

Time 2026-05-04 08:33
Airport Nevşehir Kapadokya Airport (LTAZ)

Arrival

Time 2026-05-04 09:25
Airport Istanbul Sabiha Gökçen International Airport (LTFJ)
Time Latitude Longitude Altitude Speed Heading
2026-05-04 08:16 38.77253 34.52486 3077 ft 0 kts 339°
2026-05-04 08:25 38.77256 34.52485 3077 ft 1 kts 339°
2026-05-04 08:26 38.77272 34.52480 3081 ft 4 kts 351°
2026-05-04 08:27 38.77434 34.52861 3087 ft 12 kts 118°
2026-05-04 08:28 38.77392 34.52962 3087 ft 13 kts 118°
2026-05-04 08:28 38.77348 34.53068 3087 ft 13 kts 118°
2026-05-04 08:28 38.77305 34.53174 3091 ft 14 kts 117°
2026-05-04 08:28 38.77260 34.53286 3090 ft 15 kts 117°
2026-05-04 08:29 38.77212 34.53407 3087 ft 16 kts 117°
2026-05-04 08:29 38.77162 34.53535 3093 ft 17 kts 117°
2026-05-04 08:29 38.77102 34.53673 3088 ft 19 kts 120°
2026-05-04 08:31 38.76649 34.54787 3093 ft 21 kts 118°
2026-05-04 08:33 38.77951 34.51564 3649 ft 173 kts 297°
2026-05-04 08:33 38.78602 34.50249 4373 ft 177 kts 304°
2026-05-04 08:35 38.85118 34.38239 7447 ft 279 kts 302°
2026-05-04 08:35 38.86219 34.36167 8203 ft 283 kts 302°
2026-05-04 08:35 38.87330 34.34069 8954 ft 286 kts 302°
2026-05-04 08:35 38.88453 34.31951 9698 ft 289 kts 302°
2026-05-04 08:37 38.96234 34.17144 12097 ft 363 kts 302°
2026-05-04 08:37 38.97654 34.14433 12711 ft 367 kts 302°
2026-05-04 08:37 38.99086 34.11700 13332 ft 370 kts 302°
2026-05-04 08:38 39.00531 34.08944 13919 ft 373 kts 302°
2026-05-04 08:38 39.01988 34.06166 14454 ft 376 kts 302°
2026-05-04 08:38 39.03458 34.03362 15002 ft 379 kts 302°
2026-05-04 08:40 39.14058 33.83057 18676 ft 401 kts 302°
2026-05-04 08:40 39.15611 33.80060 19136 ft 403 kts 302°
2026-05-04 08:40 39.17171 33.77050 19598 ft 405 kts 303°
2026-05-04 08:41 39.18742 33.74023 20067 ft 407 kts 303°
2026-05-04 08:41 39.20319 33.70983 20547 ft 409 kts 303°
2026-05-04 08:41 39.21900 33.67927 21044 ft 410 kts 304°
2026-05-04 08:41 39.23483 33.64864 21531 ft 411 kts 304°
2026-05-04 08:42 39.25071 33.61790 21997 ft 413 kts 304°
2026-05-04 08:42 39.26669 33.58695 22446 ft 415 kts 305°
2026-05-04 08:42 39.28269 33.55592 22910 ft 417 kts 305°
2026-05-04 08:42 39.29878 33.52466 23375 ft 418 kts 305°
2026-05-04 08:43 39.31492 33.49330 23737 ft 420 kts 305°
2026-05-04 08:43 39.33109 33.46183 24071 ft 422 kts 305°
2026-05-04 08:43 39.34736 33.43004 24403 ft 425 kts 305°
2026-05-04 08:43 39.36367 33.39813 24728 ft 427 kts 305°
2026-05-04 08:44 39.38022 33.36613 25057 ft 429 kts 308°
2026-05-04 08:44 39.39898 33.33602 25366 ft 431 kts 312°
2026-05-04 08:46 39.53605 33.12386 27444 ft 449 kts 312°
2026-05-04 08:46 39.55605 33.09271 27712 ft 451 kts 312°
2026-05-04 08:46 39.57617 33.06138 27974 ft 453 kts 313°
2026-05-04 08:46 39.59638 33.02990 28218 ft 455 kts 313°
2026-05-04 08:47 39.61668 32.99829 28447 ft 457 kts 313°
2026-05-04 08:47 39.63707 32.96648 28684 ft 459 kts 313°
2026-05-04 08:47 39.65747 32.93458 28939 ft 460 kts 313°
2026-05-04 08:47 39.67789 32.90260 29274 ft 459 kts 314°
2026-05-04 08:48 39.69824 32.87071 29587 ft 459 kts 314°
2026-05-04 08:48 39.71858 32.83886 29885 ft 459 kts 314°
2026-05-04 08:48 39.73895 32.80696 30137 ft 458 kts 314°
2026-05-04 08:48 39.75926 32.77511 30378 ft 458 kts 314°
2026-05-04 08:49 39.77956 32.74313 30622 ft 458 kts 314°
2026-05-04 08:50 39.90118 32.55107 32097 ft 458 kts 313°
2026-05-04 08:50 39.92142 32.51900 32336 ft 459 kts 313°
2026-05-04 08:51 39.94169 32.48689 32575 ft 459 kts 313°
2026-05-04 08:51 39.96196 32.45475 32802 ft 459 kts 312°
2026-05-04 08:51 39.98218 32.42260 33009 ft 459 kts 312°
2026-05-04 08:51 40.00121 32.38903 33210 ft 462 kts 304°
2026-05-04 08:52 40.01605 32.35165 33428 ft 466 kts 294°
2026-05-04 08:52 40.02609 32.31140 33633 ft 469 kts 286°
2026-05-04 08:52 40.03404 32.27008 33809 ft 470 kts 286°
2026-05-04 08:52 40.04195 32.22884 33845 ft 467 kts 286°
2026-05-04 08:54 40.10479 31.90117 33860 ft 466 kts 286°
2026-05-04 08:55 40.12043 31.81897 33863 ft 466 kts 286°
2026-05-04 08:55 40.13598 31.73670 33876 ft 466 kts 286°
2026-05-04 09:01 40.29060 30.89772 28308 ft 471 kts 289°
2026-05-04 09:01 40.29795 30.85620 27678 ft 466 kts 289°
2026-05-04 09:01 40.30525 30.81534 27358 ft 454 kts 289°
2026-05-04 09:01 40.31228 30.77572 27214 ft 439 kts 288°
2026-05-04 09:02 40.31722 30.73648 26840 ft 433 kts 284°
2026-05-04 09:02 40.32165 30.69766 26342 ft 428 kts 284°
2026-05-04 09:02 40.32590 30.65921 25828 ft 424 kts 284°
2026-05-04 09:02 40.33003 30.62116 25319 ft 420 kts 284°
2026-05-04 09:03 40.33411 30.58341 24827 ft 416 kts 283°
2026-05-04 09:03 40.33810 30.54653 24354 ft 412 kts 283°
2026-05-04 09:03 40.34212 30.50898 23886 ft 409 kts 283°
2026-05-04 09:03 40.34603 30.47232 23400 ft 405 kts 283°
2026-05-04 09:04 40.34868 30.43561 22885 ft 405 kts 275°
2026-05-04 09:04 40.34802 30.39877 22209 ft 404 kts 275°
2026-05-04 09:04 40.35018 30.36226 21684 ft 398 kts 279°
2026-05-04 09:04 40.35259 30.32687 21255 ft 392 kts 279°
2026-05-04 09:05 40.35497 30.29143 20762 ft 389 kts 279°
2026-05-04 09:05 40.35733 30.25630 20278 ft 385 kts 279°
2026-05-04 09:05 40.35969 30.22146 19785 ft 382 kts 279°
2026-05-04 09:05 40.36203 30.18695 19271 ft 379 kts 279°
2026-05-04 09:06 40.36434 30.15269 18779 ft 376 kts 279°
2026-05-04 09:07 40.37981 29.92182 15171 ft 350 kts 281°
2026-05-04 09:08 40.38190 29.89028 14673 ft 346 kts 281°
2026-05-04 09:08 40.38395 29.85898 14124 ft 342 kts 281°
2026-05-04 09:08 40.38595 29.82802 13570 ft 339 kts 281°
2026-05-04 09:08 40.38792 29.79734 13056 ft 336 kts 281°
2026-05-04 09:09 40.38984 29.76715 12717 ft 327 kts 281°
2026-05-04 09:09 40.39165 29.73805 12579 ft 313 kts 281°
2026-05-04 09:09 40.39338 29.71012 12433 ft 301 kts 281°
2026-05-04 09:09 40.39507 29.68303 12163 ft 296 kts 281°
2026-05-04 09:10 40.39680 29.65626 11834 ft 293 kts 281°
2026-05-04 09:10 40.39851 29.62967 11538 ft 292 kts 281°
2026-05-04 09:10 40.40015 29.60324 11288 ft 291 kts 281°
2026-05-04 09:10 40.40177 29.57685 11073 ft 290 kts 281°
2026-05-04 09:11 40.40342 29.55062 10875 ft 288 kts 281°
2026-05-04 09:11 40.40507 29.52460 10591 ft 285 kts 281°
2026-05-04 09:11 40.40672 29.49877 10208 ft 283 kts 281°
2026-05-04 09:11 40.40835 29.47306 9842 ft 281 kts 281°
2026-05-04 09:12 40.40992 29.44762 9447 ft 279 kts 281°
2026-05-04 09:12 40.41148 29.42234 9041 ft 277 kts 281°
2026-05-04 09:14 40.43301 29.25675 6442 ft 248 kts 322°
2026-05-04 09:14 40.44657 29.24272 5998 ft 249 kts 327°
2026-05-04 09:14 40.46152 29.23133 5580 ft 248 kts 334°
2026-05-04 09:14 40.47672 29.22066 5216 ft 247 kts 334°
2026-05-04 09:15 40.49184 29.21013 4987 ft 245 kts 334°
2026-05-04 09:15 40.50691 29.19965 4968 ft 246 kts 334°
2026-05-04 09:15 40.52185 29.18923 4965 ft 246 kts 334°
2026-05-04 09:15 40.53556 29.17968 4971 ft 246 kts 334°
2026-05-04 09:17 40.65638 29.09500 4974 ft 246 kts 334°
2026-05-04 09:18 40.67142 29.08445 4974 ft 240 kts 334°
2026-05-04 09:18 40.68566 29.07441 4977 ft 224 kts 334°
2026-05-04 09:18 40.69889 29.06507 4981 ft 208 kts 334°
2026-05-04 09:18 40.71147 29.05622 4983 ft 204 kts 334°
2026-05-04 09:19 40.72395 29.04745 4805 ft 200 kts 334°
2026-05-04 09:19 40.73606 29.03893 4623 ft 196 kts 334°
2026-05-04 09:19 40.74803 29.03052 4434 ft 195 kts 334°
2026-05-04 09:19 40.76056 29.02446 4246 ft 192 kts 355°
2026-05-04 09:20 40.76939 29.02517 4133 ft 193 kts 12°
2026-05-04 09:20 40.78118 29.03358 3956 ft 198 kts 40°
2026-05-04 09:20 40.78991 29.04780 3786 ft 200 kts 48°
2026-05-04 09:20 40.79836 29.06221 3620 ft 196 kts 47°
2026-05-04 09:21 40.80659 29.07620 3451 ft 190 kts 47°
2026-05-04 09:21 40.81461 29.08981 3277 ft 186 kts 47°
2026-05-04 09:21 40.82237 29.10340 3096 ft 184 kts 54°
2026-05-04 09:21 40.82795 29.11814 3003 ft 174 kts 58°
2026-05-04 09:22 40.83317 29.13231 3009 ft 173 kts 58°
2026-05-04 09:22 40.83848 29.14666 3009 ft 173 kts 58°
2026-05-04 09:22 40.84369 29.16076 2859 ft 169 kts 58°
2026-05-04 09:22 40.84882 29.17459 2626 ft 165 kts 58°
2026-05-04 09:23 40.85376 29.18796 2390 ft 160 kts 58°
2026-05-04 09:23 40.85853 29.20087 2144 ft 153 kts 57°
2026-05-04 09:23 40.86314 29.21332 1912 ft 149 kts 58°
2026-05-04 09:23 40.86755 29.22527 1679 ft 142 kts 58°
2026-05-04 09:25 40.89731 29.30566 321 ft 104 kts 64°
2026-05-04 09:25 40.89912 29.31062 319 ft 31 kts 63°
2026-05-04 09:26 40.90011 29.31233 320 ft 22 kts 42°
2026-05-04 09:26 40.90134 29.31349 321 ft 20 kts 34°
2026-05-04 09:26 40.90222 29.31430 319 ft 12 kts 36°
2026-05-04 09:26 40.90292 29.31493 321 ft 12 kts 17°
2026-05-04 09:27 40.90374 29.31462 321 ft 13 kts 335°
2026-05-04 09:27 40.90453 29.31421 321 ft 12 kts 339°
2026-05-04 09:27 40.90506 29.31389 321 ft 5 kts 334°
2026-05-04 09:27 40.90525 29.31376 321 ft 0 kts 334°